Theta_e
313 314 314 310 307 313 306 307 302 308 313 320 321 322 326 327 331 333 335 336 337 341 343 346 347 349 350 354 357 356 356 357
313 315 315 313 314 305 307 300 298 305 308 311 318 321 323 326 328 332 334 337 338 341 343 345 348 349 351 355 355 356 355 356
312 309 308 309 308 309 308 306 301 299 305 317 314 318 324 326 330 332 333 336 338 342 347 348 349 350 350 353 354 354 356 356
308 314 315 313 311 311 305 304 306 305 307 321 323 324 326 327 330 332 334 336 341 344 346 347 349 351 352 353 352 353 355 359
305 310 314 312 312 312 312 310 308 303 306 320 322 324 326 327 330 337 337 337 340 344 347 348 350 355 354 355 354 353 356 355
303 307 312 309 311 313 312 307 307 307 310 316 317 319 324 328 332 334 337 339 339 343 348 352 353 360 358 357 357 360 355 353
311 312 311 309 310 310 309 311 308 310 310 315 318 321 322 325 328 334 336 336 342 342 347 352 357 359 361 359 362 363 364 359
309 312 311 309 311 311 311 310 312 313 312 320 320 320 321 321 322 327 336 337 340 343 349 351 354 357 357 359 360 364 361 364
305 311 310 306 310 310 312 314 315 309 315 321 319 321 322 324 326 329 337 339 340 343 349 353 357 360 359 361 363 363 363 363
307 309 299 310 316 316 314 314 315 317 319 320 321 325 324 330 333 335 340 341 345 344 349 355 357 359 363 363 364 363 362 363
304 303 307 310 313 312 312 312 316 317 319 324 324 323 325 325 333 334 336 343 347 347 351 357 358 361 363 362 363 362 362 363
307 302 299 310 315 318 317 308 323 325 326 325 322 316 315 332 329 331 331 338 339 343 353 357 359 362 363 362 362 360 362 364
306 306 307 316 320 319 307 312 326 328 329 325 324 328 325 325 329 341 341 344 347 348 353 358 361 361 360 360 360 361 358 358
308 303 302 320 317 315 324 328 328 329 329 329 330 325 323 328 338 340 345 347 349 352 355 359 363 364 361 355 357 355 354 351
310 311 317 322 322 322 326 326 326 327 328 330 331 331 332 339 341 341 345 350 350 355 357 358 361 362 353 351 351 349 349 348
311 315 313 318 324 322 321 324 325 327 328 329 330 333 333 341 343 346 350 351 354 354 353 354 357 357 352 351 351 349 346 345
310 315 315 318 323 321 320 322 323 324 327 327 329 332 333 339 343 346 350 351 352 351 350 349 352 350 348 349 348 344 343 342
305 312 313 315 321 321 318 319 322 322 323 326 328 331 335 340 346 349 349 351 350 351 348 347 346 346 348 348 348 343 340 338
312 315 317 317 319 320 319 321 321 321 323 324 327 330 334 335 345 340 348 348 348 349 348 348 346 344 346 347 346 345 343 340
Wind_Speed
15 15 15 15 15 18 13 18 11 10 16 9 3 8 10 8 10 10 14 14 11 17 16 12 9 11 9 14 14 13 13 10
15 16 18 15 14 12 9 10 12 3 9 4 13 12 8 10 11 12 13 14 13 13 13 14 14 11 9 13 12 14 13 12
6 6 12 12 13 11 13 11 12 3 4 11 14 26 9 11 13 13 12 12 13 13 10 12 13 13 11 12 12 9 11 14
15 11 16 17 17 12 7 10 9 8 10 21 28 36 14 12 13 14 13 13 10 14 12 11 10 12 12 11 13 12 11 9
14 14 7 10 7 13 17 14 12 5 6 8 12 11 8 11 14 13 14 11 11 11 11 10 11 10 11 12 12 13 10 11
12 4 7 15 21 17 18 11 13 8 10 8 10 18 6 6 13 14 14 13 12 9 11 9 10 9 10 11 10 10 11 12
19 15 4 10 14 18 12 18 22 5 8 15 11 2 12 14 6 9 13 14 12 13 11 9 9 9 7 7 8 8 6 8
22 23 22 23 10 20 21 14 36 23 12 13 9 13 10 26 11 9 13 15 15 12 14 13 13 12 11 9 8 7 10 8
18 18 15 20 16 25 20 24 16 20 10 8 12 6 17 22 20 15 17 16 15 14 14 12 11 12 13 11 9 9 7 7
13 14 22 18 19 22 4 4 12 23 19 3 21 24 8 21 22 17 20 18 16 15 15 15 13 12 10 11 10 9 9 8
14 16 21 22 21 22 13 7 8 27 24 11 5 1 4 7 13 10 12 11 11 15 14 14 13 13 11 10 9 8 8 7
14 19 22 15 19 19 14 10 9 4 13 15 5 4 4 27 42 16 17 22 14 12 14 13 13 13 12 11 10 9 9 7
14 18 18 6 18 22 8 4 5 9 11 10 4 2 9 20 41 11 5 15 12 12 12 10 8 11 10 10 9 8 10 8
10 8 20 22 10 16 8 9 8 8 6 6 10 6 14 17 26 7 8 9 11 11 11 10 9 9 9 11 8 9 7 6
9 6 8 15 6 17 19 11 9 5 6 7 4 6 15 7 5 3 6 6 9 12 11 10 7 7 11 9 8 8 7 6
10 4 7 12 7 10 17 30 13 13 10 11 9 6 6 7 5 6 7 7 12 12 11 8 7 10 10 8 8 7 7 7
12 10 14 7 6 10 7 19 20 16 12 13 14 9 8 8 6 6 5 8 11 10 10 9 8 9 9 8 8 8 7 7
13 8 8 11 6 5 2 19 20 16 12 13 14 16 10 5 10 8 7 8 9 11 11 10 9 8 8 8 7 8 7 5
13 18 20 15 18 18 13 22 19 14 14 11 12 16 16 6 12 16 12 11 12 11 11 9 9 8 7 7 7 6 5 4
Wind_Direction
208 211 225 257 251 291 295 291 310 122 186 185 258 122 128 127 136 146 155 181 159 150 153 158 150 156 165 157 166 179 190 195
188 199 217 249 305 301 316 322 337 66 93 56 349 315 116 137 146 150 167 159 167 158 164 166 164 159 166 159 168 179 193 188
213 185 248 215 240 237 256 273 296 259 243 154 169 286 187 159 153 155 163 164 175 156 158 161 163 158 170 156 168 191 202 185
243 212 221 247 242 280 245 260 242 295 46 163 176 199 183 153 150 155 162 169 163 148 161 166 160 158 169 169 171 188 195 195
274 269 321 282 275 283 299 267 289 279 154 191 179 123 171 151 152 148 152 159 165 163 157 166 167 164 170 174 182 184 191 194
282 347 8 317 312 321 330 305 308 274 126 38 28 360 349 79 158 155 154 162 166 162 161 172 167 164 171 175 187 190 187 191
284 282 178 315 300 321 309 302 296 336 233 164 141 146 9 317 258 161 158 163 166 171 168 176 163 166 160 172 181 185 202 192
274 281 294 167 248 312 269 266 293 286 292 116 159 128 145 243 210 235 171 170 169 177 165 177 180 179 181 185 187 188 197 208
279 295 293 271 208 212 233 290 325 326 293 99 7 322 187 217 205 201 178 179 174 180 171 177 180 175 185 188 183 195 194 202
271 269 268 282 273 288 320 63 329 306 319 332 166 230 184 228 202 197 174 182 175 176 169 171 181 177 177 182 182 183 193 199
259 254 269 272 283 293 305 5 349 307 279 4 175 208 105 331 277 182 182 168 176 172 167 164 169 166 169 170 170 175 186 196
247 256 261 274 285 289 313 287 162 47 8 22 71 150 309 335 304 158 174 200 169 155 135 146 153 153 156 160 162 176 184 182
257 245 250 301 340 274 269 325 31 39 46 69 71 178 126 318 302 44 104 131 142 145 130 133 140 140 154 160 172 132 103 97
242 287 281 4 1 316 4 89 46 38 38 34 137 182 133 208 292 24 73 104 123 119 125 128 124 134 159 104 99 91 91 107
331 292 325 350 357 350 350 20 20 351 1 355 12 333 193 147 185 151 133 117 125 108 102 102 118 151 112 122 123 125 132 123
329 114 41 316 330 33 357 319 346 348 358 341 342 337 315 121 135 132 153 138 107 114 124 121 124 102 114 134 133 133 130 139
290 278 345 241 95 41 338 312 320 327 347 332 318 316 305 142 140 149 145 118 118 129 126 134 120 125 143 145 145 145 152 144
314 338 327 303 185 142 348 310 308 308 321 323 327 316 302 189 147 143 151 129 136 131 138 145 144 148 146 154 155 149 150 170
320 315 307 299 289 288 198 214 249 273 299 305 315 304 300 271 173 159 149 152 147 144 139 149 147 151 160 163 161 176 222 134